www.pogodaiklimat.ru

Погода и климат >> Архив погоды >> Россия >> Якутия >> Усть-Мая


ПОГОДА в Усть-Мае

АРХИВ ПОГОДЫ в Усть-Мае

Время (UTC), дата Ветер
(напр.,м/с)
 
Видим.   Явления Облачность Т
(С)
Тd
(С)
f
(%)
Тe
(С)
Тes
(С)
Комфортность P
(гПа)
Po
(гПа)
Тmin
(С)
Tmax
(С)
R
(мм)
R24
(мм)
S
(см)
00 14.01 штиль 0 10 км слабый снег 10/0
[As trans Cs]
-43.8 -46.6 74 -44 -44 опасность
обморожения
1017.5 992.2
03 14.01 штиль 0 50 км {снег} 10/0
[Ac trans Cs]
-42.0 -45.1 72 -42 -42 опасность
обморожения
1017.3 992.2
06 14.01 штиль 0 50 км {снег} 9/0
[Ac trans Ci fib]
-41.5 -44.7 71 -42 -42 опасность
обморожения
1017.4 992.4
09 14.01 штиль 0 4000 м дымка 3/0
[Ci fib]
-43.6 -46.4 74 -44 -44 опасность
обморожения
1018.3 993.0 -41.2 0.0
12 14.01 СВ 1 20 км слабый снег 10/0
[Cs]
-43.1 -45.8 75 -49 -49 опасность
обморожения
1018.8 993.6
15 14.01 штиль 0 50 км {снег} 4/0
[Ci fib]
-43.5 -46.2 74 -44 -44 опасность
обморожения
1018.8 993.5
18 14.01 штиль 0 20 км слабый снег 10/0
[Cs]
-42.8 -45.5 75 -43 -43 опасность
обморожения
1018.0 992.8
21 14.01 штиль 0 20 км слабый снег 10/0
[Cs]
-43.3 -46.0 74 -43 -43 опасность
обморожения
1017.9 992.7 -44.0 0.2 30
00 15.01 штиль 0 50 км в посл. час снег 4/0
[Ci fib]
-44.3 -47.1 73 -44 -44 опасность
обморожения
1017.6 992.2 -44.3
03 15.01 штиль 0 20 км слабый снег 10/0
[Cs]
-40.7 -43.7 73 -41 -40 опасность
обморожения
1016.7 991.8
06 15.01 штиль 0 50 км в посл. час снег 10/0
[Cs]
-39.3 -42.4 72 -39 -39 опасность
обморожения
1016.0 991.2
09 15.01 штиль 0 20 км слабый снег 10/0
[Ac trans Cs]
-40.8 -43.5 75 -41 -41 опасность
обморожения
1016.2 991.3 -37.6 0.2
12 15.01 штиль 0 20 км слабый снег 10/0
[Cs]
-41.6 -44.2 76 -42 -42 опасность
обморожения
1016.6 991.6
15 15.01 штиль 0 50 км {снег} 6/0
[Ci fib]
-42.9 -45.6 75 -43 -43 опасность
обморожения
1016.4 991.3
18 15.01 штиль 0 10 км слабый снег 10/0
[As op]
-41.5 -44.2 75 -42 -42 опасность
обморожения
1016.4 991.5
21 15.01 штиль 0 50 км {снег} 8/0
[Ci fib]
-42.6 -45.2 75 -43 -43 опасность
обморожения
1016.9 991.8 -43.2 0.2 30
00 16.01 штиль 0 50 км {снег} 4/0
[Ci fib]
-44.2 -47.0 73 -44 -44 опасность
обморожения
1017.5 992.2 -44.2
03 16.01 штиль 0 4000 м дымка 3/0
[Ci fib]
-39.4 -42.4 73 -39 -39 опасность
обморожения
1016.8 992.0
06 16.01 штиль 0 50 км 3/0
[Ci fib]
-38.7 -41.7 73 -39 -39 опасность
обморожения
1017.0 992.2
09 16.01 штиль 0 50 км 3/0
[Ci fib]
-40.9 -43.5 76 -41 -41 опасность
обморожения
1017.7 992.7 -36.9
12 16.01 штиль 0 50 км 5/0
[Ci fib]
-42.3 -44.9 76 -42 -42 опасность
обморожения
1017.6 992.5
15 16.01 штиль 0 50 км 3/0
[Ci fib]
-43.0 -45.6 75 -43 -43 опасность
обморожения
1018.1 992.9
18 16.01 штиль 0 50 км ясно -43.7 -46.4 74 -44 -44 опасность
обморожения
1018.8 993.5
21 16.01 штиль 0 50 км 3/0
[Ci fib]
-44.6 -47.4 73 -45 -45 опасность
обморожения
1019.6 994.2 -44.6 30
00 17.01 штиль 0 2000 м дымка 3/0
[Ci fib]
-44.7 -47.4 74 -45 -45 опасность
обморожения
1020.3 994.9 -44.8
03 17.01 штиль 0 4000 м дымка 3/0
[Ci fib]
-40.6 -43.8 71 -41 -40 опасность
обморожения
1020.2 995.2
06 17.01 штиль 0 50 км 3/0
[Ci fib]
-38.6 -41.6 73 -39 -39 опасность
обморожения
1020.0 995.2
09 17.01 штиль 0 50 км 3/0
[Ci fib]
-42.5 -45.3 74 -43 -43 опасность
обморожения
1020.7 995.5 -38.3
12 17.01 штиль 0 4000 м дымка 4/0
[Ci fib]
-43.0 -45.7 75 -43 -43 опасность
обморожения
1020.8 995.5
15 17.01 штиль 0 4000 м дымка 3/0
[Ci fib]
-44.2 -46.9 74 -44 -44 опасность
обморожения
1021.0 995.6
18 17.01 штиль 0 4000 м дымка ясно -45.1 -47.9 73 -45 -45 опасность
обморожения
1021.1 995.6
21 17.01 штиль 0 4000 м дымка 3/0
[Ci fib]
-44.8 -47.6 73 -45 -45 опасность
обморожения
1021.0 995.5 -45.4 30
00 18.01 штиль 0 10 км слабый снег 10/0
[Ac trans Cs]
-43.8 -46.6 74 -44 -44 опасность
обморожения
1021.0 995.6
03 18.01 штиль 0 4000 м слабый снег 10/0
[As trans Cs]
-39.9 -42.9 73 -40 -39 опасность
обморожения
1020.4 995.5
06 18.01 штиль 0 20 км слабый снег 10/0
[Cs]
-38.5 -41.7 72 -39 -39 опасность
обморожения
1020.4 995.6
09 18.01 штиль 0 50 км {снег} 6/0
[Ci fib]
-41.5 -44.2 75 -42 -42 опасность
обморожения
1021.4 996.3 -37.8 0.2
12 18.01 штиль 0 20 км слабый снег 10/0
[Cs]
-42.7 -45.4 75 -43 -43 опасность
обморожения
1022.6 997.4
15 18.01 штиль 0 20 км слабый снег 10/0
[Cs]
-43.7 -46.4 74 -44 -44 опасность
обморожения
1023.1 997.7
18 18.01 штиль 0 50 км {снег} 6/0
[Ci fib]
-44.5 -47.3 73 -45 -45 опасность
обморожения
1024.2 998.7
21 18.01 штиль 0 20 км слабый снег 10/0
[Cs]
-43.4 -46.2 74 -43 -43 опасность
обморожения
1024.8 999.4 -44.6 0.2 30
00 19.01 штиль 0 4000 м слабый снег 10/0
[Ac trans Cs]
-44.5 -47.3 73 -45 -45 опасность
обморожения
1026.0 1000.4
03 19.01 Ю 1 20 км слабый снег 10/0
[Cs]
-41.3 -44.6 70 -47 -46 опасность
обморожения
1026.1 1000.9
06 19.01 штиль 0 20 км слабый снег 10/0
[As op Cs]
-39.2 -42.7 69 -39 -39 опасность
обморожения
1027.0 1002.0
09 19.01 ЮЗ 1 50 км {снег} 5/0
[Ci fib]
-41.7 -44.3 76 -47 -47 опасность
обморожения
1028.5 1003.2 -38.4 0.2
12 19.01 ЮЗ 1 50 км {снег} 5/0
[Ci fib]
-43.9 -46.6 74 -50 -50 опасность
обморожения
1030.2 1004.6
15 19.01 штиль 0 20 км слабый снег 10/0
[Cs]
-44.6 -47.3 74 -45 -45 опасность
обморожения
1031.2 1005.5
18 19.01 штиль 0 20 км слабый снег 10/0
[Cs]
-43.8 -46.6 74 -44 -44 опасность
обморожения
1032.2 1006.6
21 19.01 штиль 0 20 км слабый снег 10/0
[Cs]
-45.2 -48.0 73 -45 -45 опасность
обморожения
1033.5 1007.7 -45.5 0.2 30
00 20.01 штиль 0 20 км слабый снег 10/0
[Ac trans Cs]
-44.7 -47.5 73 -45 -45 опасность
обморожения
1034.8 1009.0
03 20.01 штиль 0 20 км слабый снег 10/0
[As trans Cs]
-41.0 -44.2 71 -41 -40 опасность
обморожения
1035.4 1010.0
06 20.01 ЮЗ 1 20 км слабый снег 10/0
[As trans Cs]
-39.3 -42.2 74 -44 -44 опасность
обморожения
1035.7 1010.5
09 20.01 ЮЗ 1 20 км слабый снег 10/0
[As op Cs]
-41.3 -43.8 77 -47 -47 опасность
обморожения
1036.5 1011.0 -39.0 0.3
12 20.01 штиль 0 4000 м слабый снег 10/0
[Cs]
-44.1 -46.8 74 -44 -44 опасность
обморожения
1037.7 1011.8
15 20.01 штиль 0 20 км слабый снег 10/0
[As op Cs]
-43.6 -46.4 74 -44 -44 опасность
обморожения
1037.1 1011.3
18 20.01 штиль 0 10 км слабый снег 10/0
[As op Cs]
-41.5 -44.2 75 -42 -42 опасность
обморожения
1036.4 1010.9
21 20.01 штиль 0 20 км слабый снег 10/0
[As op Cs]
-43.0 -45.7 75 -43 -43 опасность
обморожения
1035.7 1010.0 -44.2 0.3 30

 

Местоположение метеостанции Усть-Мая (Якутия, Россия): широта 60.35 долгота 134.40 высота над уровнем моря 170 м.

В архиве по умолчанию представлена погода в Усть-Мае за последнюю неделю. Архивные данные за месяц целиком и за предыдущие месяцы, начиная с января 2011 года, Вы можете получить, выбрав интересующий диапазон дат из раскрывающегося списка и нажав кнопку "Ввод!".

Внимание! Время в таблицах - всемирное. Для получения местного времени необходимо прибавить поправку, которая в Усть-Мае равна 9 ч.

Смотрите также архив погоды в соседних городах и на ближайших метеорологических станциях:

Погода в Усть-Миле (Якутия, Россия) (112 км)
Погода в Усть-Юдоме (Якутия, Россия) (136 км)
Погода в Амге (Якутия, Россия) (149 км)
Погода в Охотском Перевозе (Якутия, Россия) (179 км)
Погода в Югоренке (Якутия, Россия) (189 км)
Погода в Чурапче (Якутия, Россия) (210 км)
Погода в Ытык-Кюёле (Якутия, Россия) (230 км)
Погода в Тегюльте (Якутия, Россия) (242 км)
Погода в Крест-Хальджае (Якутия, Россия) (275 км)
Погода в Учуре (Якутия, Россия) (280 км)

Пояснения к столбцам:

Ветер - указаны скорость ветра в м/с - средняя за 10 мин, порывы в срок и между сроками (в фигурных скобках) и направление, откуда дует ветер: С - северный, СВ - северо-восточный, В - восточный, ЮВ - юго-восточный, Ю - южный, ЮЗ - юго-западный, З - западный, СЗ - северо-западный.
Видимость - горизонтальная дальность видимости в метрах или километрах. При видимости от 1 до 10 км при отсутствии осадков обычно наблюдается дымка, при ухудшении видимости до 1 км и менее - туман. В сухую погоду видимость может ухудшаться дымом, пылью или мглою.
Явления - указаны атмосферные явления, наблюдавшиеся в срок или в последний час перед сроком; фигурными скобками обозначены явления, наблюдавшиеся между сроками (за 1-3 часа до срока); квадратными скобками обозначены град или гололедные отложения с указанием их диаметра в мм.
Облачность - указаны через наклонную черту общая и нижняя облачность в баллах и высота нижней границы облаков в метрах; квадратными скобками обозначены формы облаков: Ci - перистые, Cs - перисто-слоистые, Cc - перисто-кучевые, Ac - высококучевые, As - высокослоистые, Sc - слоисто-кучевые, Ns - слоисто-дождевые, Cu - кучевые, Cb - кучево-дождевые. Подробнее классификацию облаков см. в Атласе облаков (PDF).
T - Температура воздуха - температура, измеренная на высоте 2 м над землей.
Td - Температура точки росы - температура, при понижении до которой содержащийся в воздухе водяной пар достигнет насыщения.
f - Относительная влажность воздуха - влажноcть воздуха, измеренная на высоте 2 м над землей.
Te - Эффективная температура - температура, которую ощущает одетый по сезону человек в тени. Характеристика душности погоды. При расчете учитывается влияние влажности воздуха и скорости ветра на теплоощущения человека.
Tes - Эффективная температура на солнце - температура, которую ощущает человек, с поправкой на солнечный нагрев. Характеристика знойности погоды. Зависит от высоты солнца над горизонтом, облачности и скорости ветра. Ночью, в пасмурную погоду, а также при ветре 12 м/с и более поправка равна нулю.
P - Атмосферное давление - приведенное к уровню моря атмосферное давление.
Po - Атмосферное давление - измеренное на уровне метеостанции атмосферное давление.
Tmin - Минимальная температура - минимум температуры воздуха на высоте 2 м над землей.
Tmax - Максимальная температура - максимум температуры воздуха на высоте 2 м над землей.
R - Количество осадков - Количество выпавших осадков за период времени, мм. При наведении курсора мыши на число - период времени, за который выпало указанное количество осадков.
R24 - Количество осадков - Количество выпавших осадков за 24 часа, мм.
S - Снежный покров - Высота снежного покрова, см. При наведении курсора мыши на число - состояние снежного покрова и степень покрытия местности в баллах.